カタログに戻る

DELTA 1 DEB

運用中SSO
NORAD 7489·DEBRIS·🇺🇸 United States

打ち上げ Nov 6, 1973 から Vandenberg Space Force Base

Loading…

次のパス (今後24時間)

TLE

最新Source: Space-Track

元期: Sep 14, 2026, 00:42 UTC

1 07489U 73086FV  26257.02950012 -.00000021  00000-0  21385-3 0  9999
2 07489 102.5293 280.2487 0060996 174.3261 214.8981 12.29743468370242

AllMySatでDELTA 1 DEBをリアルタイム追跡

Download on the App Store